Theta_e
306 306 305 302 300 301 304 306 307 307 307 309 309 310 310 309 308 308 307 306 308 307 313 313 315 315 316 316 315 314 313 313 315 317 316 317 319 321 322 322 322 335 347 348 355
305 306 306 304 301 301 301 302 308 308 309 309 309 309 310 308 308 309 310 307 308 314 317 316 316 316 314 316 317 316 313 314 314 316 315 316 317 318 321 320 321 350 345 350 352
299 299 299 300 301 301 300 301 307 308 310 310 309 309 308 308 307 311 316 314 314 311 312 313 313 313 312 315 317 316 318 316 316 316 316 317 318 318 319 320 321 340 346 348 349
296 297 297 297 297 297 297 299 305 308 309 309 309 309 309 309 307 320 315 314 314 313 317 312 311 312 311 313 315 319 318 318 318 318 317 318 317 318 317 316 317 320 345 347 348
296 297 297 297 297 297 298 298 299 305 309 308 308 308 307 308 310 312 316 315 315 316 316 312 310 310 312 312 313 318 320 319 318 317 318 318 318 318 316 316 316 318 334 346 346
297 297 297 297 298 297 298 299 299 303 307 310 308 308 308 310 309 311 315 316 315 315 314 312 314 310 311 311 312 314 316 318 318 319 318 317 317 315 317 316 316 316 323 342 346
297 296 297 298 298 298 299 300 301 307 308 310 309 309 309 308 309 315 320 317 316 317 321 318 317 321 312 315 312 313 315 315 317 317 317 318 319 317 317 316 315 315 317 324 336
297 298 298 298 300 300 300 301 306 312 311 311 310 310 310 310 312 313 312 315 314 315 317 317 319 319 319 317 319 320 319 320 319 318 318 318 321 321 320 316 317 316 316 318 319
297 298 299 301 304 302 302 306 313 312 309 310 310 310 314 314 316 317 314 313 313 313 313 313 313 314 316 317 318 318 323 321 321 318 318 318 321 321 320 317 317 317 314 316 316
299 298 298 304 306 302 305 312 313 312 313 312 313 312 312 316 317 315 315 314 312 312 311 311 311 313 313 316 323 321 322 320 322 319 319 318 320 320 320 319 317 314 315 316 315
299 298 300 302 305 303 309 312 310 309 314 312 311 313 311 311 312 312 313 313 312 313 317 313 311 313 314 314 317 319 320 321 321 320 319 320 320 320 319 318 319 315 316 313 314
300 298 299 299 304 304 309 311 313 311 311 311 311 311 311 311 311 311 312 311 312 319 319 319 317 313 313 315 316 317 319 320 319 318 317 318 318 318 318 318 320 319 315 318 313
299 300 299 300 303 309 304 311 311 312 310 312 311 311 307 311 311 314 315 313 311 313 319 321 320 319 317 315 316 317 317 317 317 317 316 316 317 317 317 318 319 319 319 317 317
302 299 298 298 304 304 308 312 309 310 314 316 310 308 306 307 312 310 310 318 314 319 317 317 315 317 317 320 319 319 316 317 319 318 316 316 319 317 316 317 321 320 319 318 316
303 296 296 299 302 305 310 310 309 310 316 312 308 307 306 306 306 307 307 307 317 315 318 319 318 319 319 320 321 323 320 322 323 323 322 321 316 315 316 318 318 318 318 317 317
302 298 298 302 303 308 310 309 308 314 318 314 307 305 305 306 306 307 307 307 307 314 312 319 316 317 318 318 319 319 321 322 323 322 326 322 320 319 315 315 317 318 319 319 318
300 301 302 302 306 309 310 305 310 316 315 309 307 305 305 306 306 306 307 306 307 312 308 311 312 313 317 318 317 320 323 327 328 328 330 322 323 320 315 315 317 318 318 318 316
300 302 306 307 310 309 308 306 312 317 313 307 306 305 306 306 306 307 307 307 306 307 312 315 314 314 316 316 316 318 319 326 328 329 322 321 325 320 318 315 316 317 318 319 317
299 303 307 312 312 308 303 307 312 313 310 307 305 306 305 306 306 307 307 307 309 311 313 316 319 314 315 316 319 320 321 320 324 322 325 325 322 319 318 318 316 316 317 318 317
298 301 304 307 311 308 304 308 311 310 308 308 307 306 307 307 308 307 308 309 311 311 311 314 316 316 316 318 318 318 320 320 317 324 326 323 322 320 319 322 321 323 323 322 318
300 300 306 306 306 302 306 307 306 306 309 310 309 308 307 309 308 308 308 309 311 310 313 315 318 316 316 319 319 321 322 320 319 322 322 320 317 321 319 325 326 325 324 327 327
299 301 307 305 302 301 303 304 306 307 308 309 308 307 308 309 309 309 310 309 310 310 316 315 314 318 316 316 319 321 319 321 321 321 324 321 320 324 326 328 327 327 326 331 333
299 298 306 304 302 302 303 304 306 307 307 306 306 306 308 308 309 309 308 309 309 311 313 315 316 315 309 320 317 318 318 318 321 322 321 322 320 323 323 323 324 324 324 335 342
298 304 299 298 300 301 303 303 305 306 306 305 305 306 304 307 307 309 308 309 309 309 312 315 314 314 316 315 316 317 316 318 320 324 324 324 322 322 322 325 324 326 324 324 344
299 300 300 300 300 300 300 303 305 305 304 304 305 306 308 310 309 310 310 309 308 310 311 313 312 313 314 315 315 315 315 314 318 321 326 322 323 326 328 326 323 324 325 323 335
297 297 297 299 300 300 300 301 304 305 303 305 305 306 305 310 311 311 309 308 309 307 309 312 316 312 312 313 315 316 314 314 316 319 320 320 323 326 327 328 327 328 322 329 340
298 299 296 299 299 299 300 301 303 303 304 304 305 306 307 307 307 306 306 306 307 307 307 308 308 312 313 313 314 316 324 324 325 317 318 323 323 329 329 330 330 329 330 329 329
Wind_Speed
21 21 22 23 24 25 24 24 23 23 24 24 24 24 25 26 31 24 12 18 8 22 15 8 5 5 2 4 5 2 3 6 7 6 7 9 5 3 5 8 4 6 6 18 38
22 23 23 24 26 27 27 28 23 22 22 22 22 22 22 28 33 20 16 12 14 13 14 11 5 5 2 5 4 6 5 11 7 10 8 9 8 8 9 13 10 6 8 31 38
27 28 28 29 30 30 31 32 27 24 23 22 20 20 20 21 9 8 3 6 9 16 18 9 4 3 4 4 6 7 12 10 6 12 12 18 24 5 8 8 4 7 20 23 26
32 32 33 35 37 36 37 35 28 24 23 21 19 17 18 7 5 3 6 5 5 22 15 9 4 4 6 8 8 9 10 15 8 9 8 14 11 20 4 10 7 6 13 25 25
33 35 37 38 38 39 39 38 35 29 23 18 16 13 7 2 12 7 10 5 8 21 20 9 6 6 6 5 6 11 11 10 12 12 17 16 24 24 17 13 13 5 7 16 22
35 36 39 39 41 43 43 41 39 34 23 16 11 5 2 7 4 7 15 11 13 20 16 13 9 9 5 7 5 5 6 15 16 16 14 17 20 5 29 9 11 2 11 15 20
38 40 42 42 45 45 47 43 38 34 24 13 6 5 6 23 6 6 13 17 17 20 8 21 23 6 5 6 10 6 12 15 17 4 6 2 12 23 28 4 10 9 8 9 10
40 42 43 44 47 48 50 42 36 23 13 7 7 7 9 13 19 19 14 23 21 25 22 20 22 11 6 7 12 6 5 8 2 12 5 8 26 30 5 7 12 11 8 9 7
43 44 45 45 47 48 47 32 24 7 3 10 8 4 12 16 9 11 18 9 11 17 19 16 8 6 4 3 5 4 13 13 10 1 6 13 30 30 7 9 11 10 8 9 9
44 45 45 47 46 48 37 26 10 2 5 4 2 3 8 3 7 14 6 17 6 3 3 6 3 4 3 4 15 7 11 8 16 4 6 12 27 19 8 9 13 10 8 9 9
44 45 48 51 48 49 25 9 5 2 2 9 18 14 27 24 25 27 20 8 5 3 6 4 5 14 6 10 11 13 14 14 11 8 11 19 25 18 11 8 14 10 11 10 11
44 46 51 54 49 31 11 4 8 10 10 18 21 20 31 24 8 13 11 6 6 12 5 3 11 9 11 12 12 16 20 23 20 16 15 20 21 13 8 9 15 16 11 15 8
47 48 46 52 45 5 22 7 22 15 4 12 4 3 16 3 5 11 7 6 9 16 12 13 14 8 14 18 17 18 18 18 19 17 18 18 20 13 8 6 8 17 17 18 17
48 50 50 50 12 23 13 19 22 20 4 7 9 5 20 16 4 20 22 3 6 8 8 12 4 10 4 11 15 16 17 17 14 9 11 5 16 16 6 9 9 10 18 17 16
50 54 51 42 14 7 9 20 25 3 3 6 11 6 12 11 15 14 21 10 6 14 4 15 18 14 9 9 4 12 13 5 9 1 2 8 3 5 6 7 9 10 9 15 19
52 54 53 19 8 10 16 25 7 3 6 6 11 15 17 16 16 20 13 10 13 6 11 18 11 7 9 9 10 19 13 6 6 1 6 11 5 14 9 8 8 9 8 12 20
53 55 30 9 5 10 20 6 4 3 12 11 19 14 10 16 21 17 17 15 6 4 13 10 16 18 12 10 13 8 4 2 4 6 5 9 5 12 8 13 14 18 14 10 11
53 48 19 12 10 12 10 5 2 4 7 15 13 10 8 16 14 15 15 16 8 10 9 7 5 9 2 14 8 7 10 5 4 4 5 6 6 11 19 13 8 19 17 9 11
54 37 11 6 4 9 4 4 3 11 17 17 13 8 9 11 6 7 12 9 7 11 6 4 4 6 13 9 7 4 5 12 9 9 1 4 6 10 17 14 15 13 14 9 9
33 17 14 31 13 3 4 6 4 11 11 10 6 4 10 12 7 9 6 3 7 18 6 3 6 3 13 6 6 6 4 3 2 6 5 5 6 10 7 4 6 5 8 8 9
12 4 7 37 24 5 2 3 10 16 13 7 11 6 7 5 6 5 7 12 2 11 14 7 4 3 7 4 2 3 2 4 4 4 4 3 7 1 6 3 7 8 11 15 11
9 4 20 34 5 3 4 10 14 16 9 8 8 6 4 4 4 5 6 12 7 11 6 5 3 4 6 5 3 3 3 1 3 5 4 4 9 1 1 2 4 9 12 20 13
5 3 14 17 4 5 6 11 12 15 14 10 7 5 7 4 5 7 12 7 9 4 5 5 1 3 6 3 3 4 1 2 6 4 8 5 7 1 5 6 6 8 11 12 5
3 4 4 4 3 5 12 7 12 12 8 16 7 5 10 11 9 10 16 8 15 15 17 5 3 4 4 5 7 9 10 7 5 4 7 14 9 11 8 7 10 16 9 15 1
2 2 2 5 7 12 11 10 14 13 10 5 4 13 11 8 19 2 12 14 16 8 4 1 4 3 5 12 16 17 17 15 10 12 7 6 13 8 3 4 4 12 13 17 16
2 3 3 8 6 10 5 7 12 20 13 8 12 20 16 8 13 19 20 15 7 7 3 4 3 3 6 13 9 9 13 17 16 17 14 12 16 5 5 3 4 6 11 22 11
8 7 1 4 5 5 3 14 18 15 8 17 18 15 16 14 19 24 22 22 16 10 6 4 2 3 5 8 13 5 0 13 11 14 19 9 9 4 4 3 2 8 7 18 17
Wind_Direction
352 349 347 345 344 339 334 328 323 320 318 319 319 319 318 318 314 308 244 242 229 211 204 228 258 235 213 219 191 102 159 223 219 233 259 300 296 126 301 285 326 256 185 166 149
352 348 345 341 340 338 336 333 320 317 314 312 313 314 316 323 314 270 287 246 207 145 170 172 176 176 241 204 208 166 198 217 196 223 266 288 285 1 345 317 324 314 112 144 149
357 353 349 345 342 340 338 335 326 320 315 311 310 313 318 327 319 248 119 115 186 194 215 208 223 144 196 206 220 201 231 221 234 232 253 271 278 288 265 290 273 250 154 157 157
358 354 352 351 348 346 342 337 327 319 313 310 309 312 316 314 292 301 173 112 169 192 190 185 182 176 212 203 201 255 239 234 256 261 268 268 299 280 289 260 273 320 200 164 164
357 354 352 350 347 345 341 338 332 324 311 309 309 314 337 266 249 238 192 196 156 175 192 187 171 170 200 221 232 228 236 249 250 241 249 264 259 269 281 263 276 162 230 189 175
355 352 349 348 346 343 341 337 332 325 313 304 301 299 259 284 247 267 218 192 176 167 185 178 194 203 244 223 202 257 235 252 252 253 242 244 264 258 261 223 262 158 243 209 193
353 351 348 346 345 342 341 335 331 324 305 286 262 206 243 244 244 53 203 215 195 189 176 206 222 196 186 289 238 252 267 279 252 223 224 256 275 246 255 190 243 258 212 235 191
352 350 348 344 343 341 338 332 331 320 307 238 200 187 247 271 312 280 253 228 238 229 213 225 220 224 219 266 299 291 251 255 310 240 226 191 261 254 256 213 226 241 213 248 232
351 350 348 344 341 339 336 332 334 1 41 133 142 197 268 311 272 309 223 217 239 235 234 240 243 211 241 231 297 239 255 274 294 212 227 197 254 259 223 223 231 240 188 218 251
349 347 344 341 340 339 332 334 351 62 72 147 210 258 266 292 306 339 274 221 226 233 226 214 219 225 52 127 239 232 260 257 257 190 256 261 261 265 248 231 233 224 213 198 215
347 346 342 340 338 338 338 350 1 336 233 240 262 251 281 282 281 293 282 357 288 200 208 224 202 231 200 226 255 267 274 272 274 262 228 250 265 263 254 228 240 220 226 191 213
344 344 342 340 338 338 348 332 269 288 304 282 267 258 260 262 294 303 288 241 212 238 213 261 239 234 211 233 237 243 254 261 275 267 264 265 268 269 257 237 234 229 222 238 193
342 342 344 340 338 5 324 295 353 342 310 304 240 258 5 45 181 346 29 300 247 237 208 216 227 208 221 233 241 242 242 258 255 263 259 271 275 262 246 254 255 241 225 219 217
340 341 342 340 336 327 299 338 346 338 353 280 6 36 10 342 37 30 1 129 22 348 313 227 261 243 275 290 259 252 261 272 288 256 249 237 260 257 227 230 235 240 232 222 220
340 340 337 337 278 297 321 332 325 349 314 5 27 37 355 31 351 4 352 338 322 304 235 265 282 262 257 240 244 268 286 322 306 305 195 281 249 268 191 245 240 230 233 226 227
340 336 338 339 252 280 336 328 327 74 249 349 13 352 352 8 359 342 351 17 329 312 318 269 271 252 241 247 224 252 259 331 280 186 255 250 189 261 238 216 261 264 266 246 222
338 336 341 302 247 324 325 352 32 222 341 359 338 357 3 350 344 347 344 345 303 296 268 277 262 262 232 256 274 228 105 283 224 214 220 226 256 252 258 244 221 245 249 224 222
337 340 343 293 297 299 343 32 222 37 347 336 332 346 9 1 339 337 327 323 284 281 282 251 241 217 223 211 184 190 169 189 248 183 240 230 203 248 251 262 249 240 247 229 219
338 345 337 10 269 262 65 21 270 348 320 329 328 336 333 352 315 337 324 293 355 350 308 289 250 340 328 244 160 180 167 196 209 260 247 235 280 283 263 263 263 255 245 244 216
338 328 304 4 308 174 78 230 300 318 347 341 345 24 320 333 338 340 303 344 336 322 255 229 286 350 275 293 225 158 158 172 313 187 208 241 242 241 303 253 299 284 296 276 286
347 352 346 352 339 51 57 316 330 352 19 333 345 303 339 332 313 307 274 312 33 306 308 263 203 246 304 246 217 139 206 87 115 165 185 264 254 310 275 15 303 299 299 296 267
351 337 3 360 50 359 342 323 316 340 40 6 301 351 291 296 293 287 264 296 297 311 276 297 171 252 253 320 49 93 79 29 179 214 244 170 249 271 6 342 275 305 318 299 249
322 270 344 15 43 348 321 322 349 338 350 356 305 305 5 284 306 246 279 276 324 273 308 329 296 314 350 240 38 43 336 172 269 250 216 207 264 234 6 340 324 317 329 307 200
339 340 334 23 44 342 332 329 336 354 354 331 288 0 337 309 293 277 288 303 337 314 300 265 225 195 229 250 286 278 265 227 231 273 233 235 275 293 296 323 339 327 359 320 197
32 322 48 315 331 316 326 360 339 352 340 356 310 332 333 295 304 210 318 312 318 290 306 103 244 246 263 269 269 270 273 268 221 233 246 238 229 261 227 268 343 329 329 288 267
38 17 332 294 303 328 335 345 328 337 329 330 324 319 316 281 279 302 304 295 279 292 347 356 278 299 268 271 272 276 275 270 242 230 241 250 275 216 198 216 62 1 297 253 89
353 329 219 280 304 330 289 333 318 337 302 318 313 320 314 297 296 281 271 270 251 267 293 276 256 360 273 316 306 293 87 312 291 219 216 211 228 134 224 62 173 142 85 59 58